2024-211E

Last updated on Sun Nov 17 2024 00:02:07 GMT+0000 (Coordinated Universal Time)

1 61987U 24211E 24320.87544015 -.00002283 72313-5 00000+0 0 9992 2 61987 41.8094 237.8923 0231196 176.4500 237.6255 15.70887238 29
UTC large
Height (km)
Speed (km/s)
/
Latitude / Longitude
Inclination (degrees)
Orbital Period (minutes)
Azimuth
Elevation
Range (km)
Doppler Factor

Next 0 passes for location: London (51.5072 / 0.1276)

Sorry there are no passes over London.